owner,sensor,date,latitude,longitude,vertical_datum,mass_concentration_of_oxygen_in_sea_water,qcFlag 
DISL,ioos:station:DISL:MHPA:1,2013-07-01T00:00:00Z,30.6671,-87.9365,3.562,6.58,1111122 
DISL,ioos:station:DISL:MHPA:1,2013-07-01T00:30:00Z,30.6671,-87.9365,3.597,5.04,1111122 
DISL,ioos:station:DISL:MHPA:1,2013-07-01T01:00:00Z,30.6671,-87.9365,3.621,4.9,1111122 
DISL,ioos:station:DISL:MHPA:1,2013-07-01T01:30:00Z,30.6671,-87.9365,3.624,4.2,1111122 
DISL,ioos:station:DISL:MHPA:1,2013-07-01T02:00:00Z,30.6671,-87.9365,3.687,4.89,1111122 
DISL,ioos:station:DISL:MHPA:1,2013-07-01T02:30:00Z,30.6671,-87.9365,3.71,5.11,1111122 
DISL,ioos:station:DISL:MHPA:1,2013-07-01T03:00:00Z,30.6671,-87.9365,3.759,5.07,1111122 
DISL,ioos:station:DISL:MHPA:1,2013-07-01T03:30:00Z,30.6671,-87.9365,3.803,5.2,1111122 
DISL,ioos:station:DISL:MHPA:1,2013-07-01T04:00:00Z,30.6671,-87.9365,3.7,4.96,1111122 
DISL,ioos:station:DISL:MHPA:1,2013-07-01T04:30:00Z,30.6671,-87.9365,3.671,5.17,1111122 
DISL,ioos:station:DISL:MHPA:1,2013-07-01T05:00:00Z,30.6671,-87.9365,3.668,5.0,1111122 
DISL,ioos:station:DISL:MHPA:1,2013-07-01T05:30:00Z,30.6671,-87.9365,3.627,5.15,1111122 
DISL,ioos:station:DISL:MHPA:1,2013-07-01T06:00:00Z,30.6671,-87.9365,3.657,5.64,1111122 
DISL,ioos:station:DISL:MHPA:1,2013-07-01T06:30:00Z,30.6671,-87.9365,3.709,5.79,1111122 
DISL,ioos:station:DISL:MHPA:1,2013-07-01T07:00:00Z,30.6671,-87.9365,3.752,6.19,1111122 
DISL,ioos:station:DISL:MHPA:1,2013-07-01T07:30:00Z,30.6671,-87.9365,3.768,6.15,1111122 
DISL,ioos:station:DISL:MHPA:1,2013-07-01T08:00:00Z,30.6671,-87.9365,3.81,5.77,1111122 
DISL,ioos:station:DISL:MHPA:1,2013-07-01T08:30:00Z,30.6671,-87.9365,3.861,4.85,1111122 
DISL,ioos:station:DISL:MHPA:1,2013-07-01T09:00:00Z,30.6671,-87.9365,3.85,4.47,1111122 
DISL,ioos:station:DISL:MHPA:1,2013-07-01T09:30:00Z,30.6671,-87.9365,3.841,4.78,1111122 
DISL,ioos:station:DISL:MHPA:1,2013-07-01T10:00:00Z,30.6671,-87.9365,3.963,4.74,1111122 
DISL,ioos:station:DISL:MHPA:1,2013-07-01T10:30:00Z,30.6671,-87.9365,4.086,4.6,1111122 
DISL,ioos:station:DISL:MHPA:1,2013-07-01T11:00:00Z,30.6671,-87.9365,4.184,4.2,1111122 
DISL,ioos:station:DISL:MHPA:1,2013-07-01T11:30:00Z,30.6671,-87.9365,4.281,4.3,1111122 
DISL,ioos:station:DISL:MHPA:1,2013-07-01T12:00:00Z,30.6671,-87.9365,4.37,4.56,1111122 
DISL,ioos:station:DISL:MHPA:1,2013-07-01T12:30:00Z,30.6671,-87.9365,4.438,3.73,1111122 
DISL,ioos:station:DISL:MHPA:1,2013-07-01T13:00:00Z,30.6671,-87.9365,4.433,4.79,1111122 
DISL,ioos:station:DISL:MHPA:1,2013-07-01T13:30:00Z,30.6671,-87.9365,4.468,4.1,1111122 
DISL,ioos:station:DISL:MHPA:1,2013-07-01T14:00:00Z,30.6671,-87.9365,4.476,4.17,1111122 
DISL,ioos:station:DISL:MHPA:1,2013-07-01T14:30:00Z,30.6671,-87.9365,4.465,3.8,1111122 
DISL,ioos:station:DISL:MHPA:1,2013-07-01T15:00:00Z,30.6671,-87.9365,4.443,4.55,1111122 
DISL,ioos:station:DISL:MHPA:1,2013-07-01T15:30:00Z,30.6671,-87.9365,4.419,4.66,1111122 
DISL,ioos:station:DISL:MHPA:1,2013-07-01T16:00:00Z,30.6671,-87.9365,4.36,4.88,1111122 
DISL,ioos:station:DISL:MHPA:1,2013-07-01T16:30:00Z,30.6671,-87.9365,4.268,4.65,1111122 
DISL,ioos:station:DISL:MHPA:1,2013-07-01T17:00:00Z,30.6671,-87.9365,4.188,5.68,1111122 
DISL,ioos:station:DISL:MHPA:1,2013-07-01T17:30:00Z,30.6671,-87.9365,4.092,5.55,1111122 
DISL,ioos:station:DISL:MHPA:1,2013-07-01T18:00:00Z,30.6671,-87.9365,4.015,5.64,1111122 
DISL,ioos:station:DISL:MHPA:1,2013-07-01T18:30:00Z,30.6671,-87.9365,3.922,6.76,1111122 
DISL,ioos:station:DISL:MHPA:1,2013-07-01T19:00:00Z,30.6671,-87.9365,3.822,6.63,1111122 
DISL,ioos:station:DISL:MHPA:1,2013-07-01T19:30:00Z,30.6671,-87.9365,3.742,6.23,1111122 
DISL,ioos:station:DISL:MHPA:1,2013-07-01T20:00:00Z,30.6671,-87.9365,3.66,6.36,1111122 
DISL,ioos:station:DISL:MHPA:1,2013-07-01T20:30:00Z,30.6671,-87.9365,3.609,6.07,1111122 
DISL,ioos:station:DISL:MHPA:1,2013-07-01T21:00:00Z,30.6671,-87.9365,3.599,6.14,1111122 
DISL,ioos:station:DISL:MHPA:1,2013-07-01T21:30:00Z,30.6671,-87.9365,3.588,6.28,1111122 
DISL,ioos:station:DISL:MHPA:1,2013-07-01T22:00:00Z,30.6671,-87.9365,3.6,6.16,1111122 
DISL,ioos:station:DISL:MHPA:1,2013-07-01T22:30:00Z,30.6671,-87.9365,3.602,6.02,1111122 
DISL,ioos:station:DISL:MHPA:1,2013-07-01T23:00:00Z,30.6671,-87.9365,3.633,7.65,1111122 
DISL,ioos:station:DISL:MHPA:1,2013-07-01T23:30:00Z,30.6671,-87.9365,3.65,7.5,1111122 
DISL,ioos:station:DISL:MHPA:1,2013-07-02T00:00:00Z,30.6671,-87.9365,3.665,7.55,1111122 
DISL,ioos:station:DISL:MHPA:1,2013-07-02T00:30:00Z,30.6671,-87.9365,3.652,7.29,1111122 
DISL,ioos:station:DISL:MHPA:1,2013-07-02T01:00:00Z,30.6671,-87.9365,3.685,7.25,1111122 
DISL,ioos:station:DISL:MHPA:1,2013-07-02T01:30:00Z,30.6671,-87.9365,3.657,6.85,1111122 
DISL,ioos:station:DISL:MHPA:1,2013-07-02T02:00:00Z,30.6671,-87.9365,3.593,5.08,1111122 
DISL,ioos:station:DISL:MHPA:1,2013-07-02T02:30:00Z,30.6671,-87.9365,3.645,5.38,1111122 
DISL,ioos:station:DISL:MHPA:1,2013-07-02T03:00:00Z,30.6671,-87.9365,3.664,5.37,1111122 
DISL,ioos:station:DISL:MHPA:1,2013-07-02T03:30:00Z,30.6671,-87.9365,3.647,5.43,1111122 
DISL,ioos:station:DISL:MHPA:1,2013-07-02T04:00:00Z,30.6671,-87.9365,3.675,5.74,1111122 
DISL,ioos:station:DISL:MHPA:1,2013-07-02T04:30:00Z,30.6671,-87.9365,3.725,5.6,1111122 
DISL,ioos:station:DISL:MHPA:1,2013-07-02T05:00:00Z,30.6671,-87.9365,3.709,5.35,1111122 
DISL,ioos:station:DISL:MHPA:1,2013-07-02T05:30:00Z,30.6671,-87.9365,3.742,5.52,1111122 
DISL,ioos:station:DISL:MHPA:1,2013-07-02T06:00:00Z,30.6671,-87.9365,3.807,6.13,1111122 
DISL,ioos:station:DISL:MHPA:1,2013-07-02T06:30:00Z,30.6671,-87.9365,3.83,5.81,1111122 
DISL,ioos:station:DISL:MHPA:1,2013-07-02T07:00:00Z,30.6671,-87.9365,3.897,5.97,1111122 
DISL,ioos:station:DISL:MHPA:1,2013-07-02T07:30:00Z,30.6671,-87.9365,3.94,5.84,1111122 
DISL,ioos:station:DISL:MHPA:1,2013-07-02T08:00:00Z,30.6671,-87.9365,4.002,5.92,1111122 
DISL,ioos:station:DISL:MHPA:1,2013-07-02T08:30:00Z,30.6671,-87.9365,4.02,5.67,1111122 
DISL,ioos:station:DISL:MHPA:1,2013-07-02T09:00:00Z,30.6671,-87.9365,4.077,5.51,1111122 
DISL,ioos:station:DISL:MHPA:1,2013-07-02T09:30:00Z,30.6671,-87.9365,4.14,5.63,1111122 
DISL,ioos:station:DISL:MHPA:1,2013-07-02T10:00:00Z,30.6671,-87.9365,4.177,5.05,1111122 
DISL,ioos:station:DISL:MHPA:1,2013-07-02T10:30:00Z,30.6671,-87.9365,4.283,5.13,1111122 
DISL,ioos:station:DISL:MHPA:1,2013-07-02T11:00:00Z,30.6671,-87.9365,4.367,4.99,1111122 
DISL,ioos:station:DISL:MHPA:1,2013-07-02T11:30:00Z,30.6671,-87.9365,4.428,4.9,1111122 
DISL,ioos:station:DISL:MHPA:1,2013-07-02T12:00:00Z,30.6671,-87.9365,4.455,4.65,1111122 
DISL,ioos:station:DISL:MHPA:1,2013-07-02T12:30:00Z,30.6671,-87.9365,4.515,4.54,1111122 
DISL,ioos:station:DISL:MHPA:1,2013-07-02T13:00:00Z,30.6671,-87.9365,4.569,4.28,1111122 
DISL,ioos:station:DISL:MHPA:1,2013-07-02T13:30:00Z,30.6671,-87.9365,4.533,4.7,1111122 
DISL,ioos:station:DISL:MHPA:1,2013-07-02T14:00:00Z,30.6671,-87.9365,4.499,3.97,1111122 
DISL,ioos:station:DISL:MHPA:1,2013-07-02T14:30:00Z,30.6671,-87.9365,4.46,3.76,1111122 
DISL,ioos:station:DISL:MHPA:1,2013-07-02T15:00:00Z,30.6671,-87.9365,4.42,3.28,1111122 
DISL,ioos:station:DISL:MHPA:1,2013-07-02T15:30:00Z,30.6671,-87.9365,4.378,4.57,1111122 
DISL,ioos:station:DISL:MHPA:1,2013-07-02T16:00:00Z,30.6671,-87.9365,4.284,5.02,1111122 
DISL,ioos:station:DISL:MHPA:1,2013-07-02T16:30:00Z,30.6671,-87.9365,4.189,5.4,1111122 
DISL,ioos:station:DISL:MHPA:1,2013-07-02T17:00:00Z,30.6671,-87.9365,4.128,5.48,1111122 
DISL,ioos:station:DISL:MHPA:1,2013-07-02T17:30:00Z,30.6671,-87.9365,4.067,5.78,1111122 
DISL,ioos:station:DISL:MHPA:1,2013-07-02T18:00:00Z,30.6671,-87.9365,3.974,5.59,1111122 
DISL,ioos:station:DISL:MHPA:1,2013-07-02T18:30:00Z,30.6671,-87.9365,3.869,5.29,1111122 
DISL,ioos:station:DISL:MHPA:1,2013-07-02T19:00:00Z,30.6671,-87.9365,3.76,5.66,1111122 
DISL,ioos:station:DISL:MHPA:1,2013-07-02T19:30:00Z,30.6671,-87.9365,3.662,5.4,1111122 
DISL,ioos:station:DISL:MHPA:1,2013-07-02T20:00:00Z,30.6671,-87.9365,3.571,5.93,1111122 
DISL,ioos:station:DISL:MHPA:1,2013-07-02T20:30:00Z,30.6671,-87.9365,3.504,5.96,1111122 
DISL,ioos:station:DISL:MHPA:1,2013-07-02T21:00:00Z,30.6671,-87.9365,3.438,6.58,1111122 
DISL,ioos:station:DISL:MHPA:1,2013-07-02T21:30:00Z,30.6671,-87.9365,3.382,7.49,1111122 
DISL,ioos:station:DISL:MHPA:1,2013-07-02T22:00:00Z,30.6671,-87.9365,3.362,7.7,1111122 
DISL,ioos:station:DISL:MHPA:1,2013-07-02T22:30:00Z,30.6671,-87.9365,3.376,7.81,1111122 
DISL,ioos:station:DISL:MHPA:1,2013-07-02T23:00:00Z,30.6671,-87.9365,3.348,8.22,1111122 
DISL,ioos:station:DISL:MHPA:1,2013-07-02T23:30:00Z,30.6671,-87.9365,3.345,7.98,1111122 
DISL,ioos:station:DISL:MHPA:1,2013-07-03T00:00:00Z,30.6671,-87.9365,3.361,8.29,1111122 
DISL,ioos:station:DISL:MHPA:1,2013-07-03T00:30:00Z,30.6671,-87.9365,3.365,8.16,1111122 
DISL,ioos:station:DISL:MHPA:1,2013-07-03T01:00:00Z,30.6671,-87.9365,3.316,7.77,1111122 
DISL,ioos:station:DISL:MHPA:1,2013-07-03T01:30:00Z,30.6671,-87.9365,3.32,7.55,1111122 
DISL,ioos:station:DISL:MHPA:1,2013-07-03T02:00:00Z,30.6671,-87.9365,3.365,6.4,1111122 
DISL,ioos:station:DISL:MHPA:1,2013-07-03T02:30:00Z,30.6671,-87.9365,3.351,5.83,1111122 
DISL,ioos:station:DISL:MHPA:1,2013-07-03T03:00:00Z,30.6671,-87.9365,3.365,5.23,1111122 
DISL,ioos:station:DISL:MHPA:1,2013-07-03T03:30:00Z,30.6671,-87.9365,3.453,4.59,1111122 
DISL,ioos:station:DISL:MHPA:1,2013-07-03T04:00:00Z,30.6671,-87.9365,3.464,4.61,1111122 
DISL,ioos:station:DISL:MHPA:1,2013-07-03T04:30:00Z,30.6671,-87.9365,3.508,5.24,1111122 
DISL,ioos:station:DISL:MHPA:1,2013-07-03T05:00:00Z,30.6671,-87.9365,3.647,5.29,1111122 
DISL,ioos:station:DISL:MHPA:1,2013-07-03T05:30:00Z,30.6671,-87.9365,3.78,5.75,1111122 
DISL,ioos:station:DISL:MHPA:1,2013-07-03T06:00:00Z,30.6671,-87.9365,3.859,5.56,1111122 
DISL,ioos:station:DISL:MHPA:1,2013-07-03T06:30:00Z,30.6671,-87.9365,3.906,5.24,1111122 
DISL,ioos:station:DISL:MHPA:1,2013-07-03T07:00:00Z,30.6671,-87.9365,4.012,5.68,1111122 
DISL,ioos:station:DISL:MHPA:1,2013-07-03T07:30:00Z,30.6671,-87.9365,4.077,5.76,1111122 
DISL,ioos:station:DISL:MHPA:1,2013-07-03T08:00:00Z,30.6671,-87.9365,4.16,5.45,1111122 
DISL,ioos:station:DISL:MHPA:1,2013-07-03T08:30:00Z,30.6671,-87.9365,4.214,5.17,1111122 
DISL,ioos:station:DISL:MHPA:1,2013-07-03T09:00:00Z,30.6671,-87.9365,4.269,5.12,1111122 
DISL,ioos:station:DISL:MHPA:1,2013-07-03T09:30:00Z,30.6671,-87.9365,4.337,5.64,1111122 
DISL,ioos:station:DISL:MHPA:1,2013-07-03T10:00:00Z,30.6671,-87.9365,4.394,5.34,1111122 
DISL,ioos:station:DISL:MHPA:1,2013-07-03T10:30:00Z,30.6671,-87.9365,4.481,5.03,1111122 
DISL,ioos:station:DISL:MHPA:1,2013-07-03T11:00:00Z,30.6671,-87.9365,4.559,4.67,1111122 
DISL,ioos:station:DISL:MHPA:1,2013-07-03T11:30:00Z,30.6671,-87.9365,4.601,4.28,1111122 
DISL,ioos:station:DISL:MHPA:1,2013-07-03T12:00:00Z,30.6671,-87.9365,4.611,4.02,1111122 
DISL,ioos:station:DISL:MHPA:1,2013-07-03T12:30:00Z,30.6671,-87.9365,4.7,2.79,1111122 
DISL,ioos:station:DISL:MHPA:1,2013-07-03T13:00:00Z,30.6671,-87.9365,4.743,3.02,1111122 
DISL,ioos:station:DISL:MHPA:1,2013-07-03T13:30:00Z,30.6671,-87.9365,4.709,3.38,1111122 
DISL,ioos:station:DISL:MHPA:1,2013-07-03T14:00:00Z,30.6671,-87.9365,4.696,2.88,1111122 
DISL,ioos:station:DISL:MHPA:1,2013-07-03T14:30:00Z,30.6671,-87.9365,4.701,3.96,1111122 
DISL,ioos:station:DISL:MHPA:1,2013-07-03T15:00:00Z,30.6671,-87.9365,4.667,5.07,1111122 
DISL,ioos:station:DISL:MHPA:1,2013-07-03T15:30:00Z,30.6671,-87.9365,4.615,4.94,1111122 
DISL,ioos:station:DISL:MHPA:1,2013-07-03T16:00:00Z,30.6671,-87.9365,4.559,5.0,1111122 
DISL,ioos:station:DISL:MHPA:1,2013-07-03T16:30:00Z,30.6671,-87.9365,4.49,5.11,1111122 
DISL,ioos:station:DISL:MHPA:1,2013-07-03T17:00:00Z,30.6671,-87.9365,4.423,5.23,1111122 
DISL,ioos:station:DISL:MHPA:1,2013-07-03T17:30:00Z,30.6671,-87.9365,4.361,4.97,1111122 
DISL,ioos:station:DISL:MHPA:1,2013-07-03T18:00:00Z,30.6671,-87.9365,4.253,5.22,1111122 
DISL,ioos:station:DISL:MHPA:1,2013-07-03T18:30:00Z,30.6671,-87.9365,4.108,5.76,1111122 
DISL,ioos:station:DISL:MHPA:1,2013-07-03T19:00:00Z,30.6671,-87.9365,4.033,5.91,1111122 
DISL,ioos:station:DISL:MHPA:1,2013-07-03T19:30:00Z,30.6671,-87.9365,3.919,6.23,1111122 
DISL,ioos:station:DISL:MHPA:1,2013-07-03T20:00:00Z,30.6671,-87.9365,3.817,6.52,1111122 
DISL,ioos:station:DISL:MHPA:1,2013-07-03T20:30:00Z,30.6671,-87.9365,3.797,7.11,1111122 
DISL,ioos:station:DISL:MHPA:1,2013-07-03T21:00:00Z,30.6671,-87.9365,3.869,6.77,1111122 
DISL,ioos:station:DISL:MHPA:1,2013-07-03T21:30:00Z,30.6671,-87.9365,3.895,6.85,1111122 
DISL,ioos:station:DISL:MHPA:1,2013-07-03T22:00:00Z,30.6671,-87.9365,3.766,6.78,1111122 
DISL,ioos:station:DISL:MHPA:1,2013-07-03T22:30:00Z,30.6671,-87.9365,3.675,6.93,1111122 
DISL,ioos:station:DISL:MHPA:1,2013-07-03T23:00:00Z,30.6671,-87.9365,3.653,6.73,1111122 
DISL,ioos:station:DISL:MHPA:1,2013-07-03T23:30:00Z,30.6671,-87.9365,3.62,6.25,1111122 
DISL,ioos:station:DISL:MHPA:1,2013-07-04T00:00:00Z,30.6671,-87.9365,3.547,6.36,1111122 
DISL,ioos:station:DISL:MHPA:1,2013-07-04T00:30:00Z,30.6671,-87.9365,3.591,6.47,1111122 
DISL,ioos:station:DISL:MHPA:1,2013-07-04T01:00:00Z,30.6671,-87.9365,3.612,6.64,1111122 
DISL,ioos:station:DISL:MHPA:1,2013-07-04T01:30:00Z,30.6671,-87.9365,3.507,6.5,1111122 
DISL,ioos:station:DISL:MHPA:1,2013-07-04T02:00:00Z,30.6671,-87.9365,3.473,6.23,1111122 
DISL,ioos:station:DISL:MHPA:1,2013-07-04T02:30:00Z,30.6671,-87.9365,3.512,6.18,1111122 
DISL,ioos:station:DISL:MHPA:1,2013-07-04T03:00:00Z,30.6671,-87.9365,3.546,6.11,1111122 
DISL,ioos:station:DISL:MHPA:1,2013-07-04T03:30:00Z,30.6671,-87.9365,3.572,5.64,1111122 
DISL,ioos:station:DISL:MHPA:1,2013-07-04T04:00:00Z,30.6671,-87.9365,3.608,5.49,1111122 
DISL,ioos:station:DISL:MHPA:1,2013-07-04T04:30:00Z,30.6671,-87.9365,3.621,5.45,1111122 
DISL,ioos:station:DISL:MHPA:1,2013-07-04T05:00:00Z,30.6671,-87.9365,3.649,5.55,1111122 
DISL,ioos:station:DISL:MHPA:1,2013-07-04T05:30:00Z,30.6671,-87.9365,3.741,5.31,1111122 
DISL,ioos:station:DISL:MHPA:1,2013-07-04T06:00:00Z,30.6671,-87.9365,3.847,5.36,1111122 
DISL,ioos:station:DISL:MHPA:1,2013-07-04T06:30:00Z,30.6671,-87.9365,4.03,5.5,1111122 
DISL,ioos:station:DISL:MHPA:1,2013-07-04T07:00:00Z,30.6671,-87.9365,4.145,5.36,1111122 
DISL,ioos:station:DISL:MHPA:1,2013-07-04T07:30:00Z,30.6671,-87.9365,4.107,5.37,1111122 
DISL,ioos:station:DISL:MHPA:1,2013-07-04T08:00:00Z,30.6671,-87.9365,3.953,5.17,1111122 
DISL,ioos:station:DISL:MHPA:1,2013-07-04T08:30:00Z,30.6671,-87.9365,4.057,4.98,1111122 
DISL,ioos:station:DISL:MHPA:1,2013-07-04T09:00:00Z,30.6671,-87.9365,4.265,5.08,1111122 
DISL,ioos:station:DISL:MHPA:1,2013-07-04T09:30:00Z,30.6671,-87.9365,4.378,4.98,1111122 
DISL,ioos:station:DISL:MHPA:1,2013-07-04T10:00:00Z,30.6671,-87.9365,4.432,5.18,1111122 
DISL,ioos:station:DISL:MHPA:1,2013-07-04T10:30:00Z,30.6671,-87.9365,4.526,4.96,1111122 
DISL,ioos:station:DISL:MHPA:1,2013-07-04T11:00:00Z,30.6671,-87.9365,4.588,4.57,1111122 
DISL,ioos:station:DISL:MHPA:1,2013-07-04T11:30:00Z,30.6671,-87.9365,4.636,4.75,1111122 
DISL,ioos:station:DISL:MHPA:1,2013-07-04T12:00:00Z,30.6671,-87.9365,4.738,4.68,1111122 
DISL,ioos:station:DISL:MHPA:1,2013-07-04T12:30:00Z,30.6671,-87.9365,4.831,4.76,1111122 
DISL,ioos:station:DISL:MHPA:1,2013-07-04T13:00:00Z,30.6671,-87.9365,4.904,4.63,1111122 
DISL,ioos:station:DISL:MHPA:1,2013-07-04T13:30:00Z,30.6671,-87.9365,4.963,4.55,1111122 
DISL,ioos:station:DISL:MHPA:1,2013-07-04T14:00:00Z,30.6671,-87.9365,5.051,4.63,1111122 
DISL,ioos:station:DISL:MHPA:1,2013-07-04T14:30:00Z,30.6671,-87.9365,5.116,4.42,1111122 
DISL,ioos:station:DISL:MHPA:1,2013-07-04T15:00:00Z,30.6671,-87.9365,5.161,4.54,1111122 
DISL,ioos:station:DISL:MHPA:1,2013-07-04T15:30:00Z,30.6671,-87.9365,5.093,4.67,1111122 
DISL,ioos:station:DISL:MHPA:1,2013-07-04T16:00:00Z,30.6671,-87.9365,5.036,4.87,1111122 
DISL,ioos:station:DISL:MHPA:1,2013-07-04T16:30:00Z,30.6671,-87.9365,5.01,4.72,1111122 
DISL,ioos:station:DISL:MHPA:1,2013-07-04T17:00:00Z,30.6671,-87.9365,4.944,4.55,1111122 
DISL,ioos:station:DISL:MHPA:1,2013-07-04T17:30:00Z,30.6671,-87.9365,4.879,4.64,1111122 
DISL,ioos:station:DISL:MHPA:1,2013-07-04T18:00:00Z,30.6671,-87.9365,4.803,4.56,1111122 
DISL,ioos:station:DISL:MHPA:1,2013-07-04T18:30:00Z,30.6671,-87.9365,4.698,5.47,1111122 
DISL,ioos:station:DISL:MHPA:1,2013-07-04T19:00:00Z,30.6671,-87.9365,4.564,6.11,1111122 
DISL,ioos:station:DISL:MHPA:1,2013-07-04T19:30:00Z,30.6671,-87.9365,4.445,6.23,1111122 
DISL,ioos:station:DISL:MHPA:1,2013-07-04T20:00:00Z,30.6671,-87.9365,4.436,7.12,1111122 
DISL,ioos:station:DISL:MHPA:1,2013-07-04T20:30:00Z,30.6671,-87.9365,4.381,7.66,1111122 
DISL,ioos:station:DISL:MHPA:1,2013-07-04T21:00:00Z,30.6671,-87.9365,4.325,7.36,1111122 
DISL,ioos:station:DISL:MHPA:1,2013-07-04T21:30:00Z,30.6671,-87.9365,4.345,7.33,1111122 
DISL,ioos:station:DISL:MHPA:1,2013-07-04T22:00:00Z,30.6671,-87.9365,4.355,7.57,1111122 
DISL,ioos:station:DISL:MHPA:1,2013-07-04T22:30:00Z,30.6671,-87.9365,4.381,6.98,1111122 
DISL,ioos:station:DISL:MHPA:1,2013-07-04T23:00:00Z,30.6671,-87.9365,4.356,6.68,1111122 
DISL,ioos:station:DISL:MHPA:1,2013-07-04T23:30:00Z,30.6671,-87.9365,4.372,6.92,1111122 
DISL,ioos:station:DISL:MHPA:1,2013-07-05T00:00:00Z,30.6671,-87.9365,4.269,7.11,1111122 
DISL,ioos:station:DISL:MHPA:1,2013-07-05T00:30:00Z,30.6671,-87.9365,4.198,6.85,1111122 
DISL,ioos:station:DISL:MHPA:1,2013-07-05T01:00:00Z,30.6671,-87.9365,4.106,6.7,1111122 
DISL,ioos:station:DISL:MHPA:1,2013-07-05T01:30:00Z,30.6671,-87.9365,4.072,6.96,1111122 
DISL,ioos:station:DISL:MHPA:1,2013-07-05T02:00:00Z,30.6671,-87.9365,4.088,6.24,1111122 
DISL,ioos:station:DISL:MHPA:1,2013-07-05T02:30:00Z,30.6671,-87.9365,4.175,5.86,1111122 
DISL,ioos:station:DISL:MHPA:1,2013-07-05T03:00:00Z,30.6671,-87.9365,4.412,5.7,1111122 
DISL,ioos:station:DISL:MHPA:1,2013-07-05T03:30:00Z,30.6671,-87.9365,4.523,5.59,1111122 
DISL,ioos:station:DISL:MHPA:1,2013-07-05T04:00:00Z,30.6671,-87.9365,4.519,5.71,1111122 
DISL,ioos:station:DISL:MHPA:1,2013-07-05T04:30:00Z,30.6671,-87.9365,4.715,5.6,1111122 
DISL,ioos:station:DISL:MHPA:1,2013-07-05T05:00:00Z,30.6671,-87.9365,4.804,5.65,1111122 
DISL,ioos:station:DISL:MHPA:1,2013-07-05T05:30:00Z,30.6671,-87.9365,4.81,5.52,1111122 
DISL,ioos:station:DISL:MHPA:1,2013-07-05T06:00:00Z,30.6671,-87.9365,4.953,5.76,1111122 
DISL,ioos:station:DISL:MHPA:1,2013-07-05T06:30:00Z,30.6671,-87.9365,5.04,5.68,1111122 
DISL,ioos:station:DISL:MHPA:1,2013-07-05T07:00:00Z,30.6671,-87.9365,5.087,5.52,1111122 
DISL,ioos:station:DISL:MHPA:1,2013-07-05T07:30:00Z,30.6671,-87.9365,4.998,5.61,1111122 
DISL,ioos:station:DISL:MHPA:1,2013-07-05T08:00:00Z,30.6671,-87.9365,4.919,5.34,1111122 
DISL,ioos:station:DISL:MHPA:1,2013-07-05T08:30:00Z,30.6671,-87.9365,4.987,5.11,1111122 
DISL,ioos:station:DISL:MHPA:1,2013-07-05T09:00:00Z,30.6671,-87.9365,4.921,5.11,1111122 
DISL,ioos:station:DISL:MHPA:1,2013-07-05T09:30:00Z,30.6671,-87.9365,5.012,5.03,1111122 
DISL,ioos:station:DISL:MHPA:1,2013-07-05T10:00:00Z,30.6671,-87.9365,4.884,5.08,1111122 
DISL,ioos:station:DISL:MHPA:1,2013-07-05T10:30:00Z,30.6671,-87.9365,4.909,5.08,1111122 
DISL,ioos:station:DISL:MHPA:1,2013-07-05T11:00:00Z,30.6671,-87.9365,4.935,5.03,1111122 
DISL,ioos:station:DISL:MHPA:1,2013-07-05T11:30:00Z,30.6671,-87.9365,4.897,4.94,1111122 
DISL,ioos:station:DISL:MHPA:1,2013-07-05T12:00:00Z,30.6671,-87.9365,4.916,4.87,1111122 
DISL,ioos:station:DISL:MHPA:1,2013-07-05T12:30:00Z,30.6671,-87.9365,4.931,5.31,1111122 
DISL,ioos:station:DISL:MHPA:1,2013-07-05T13:00:00Z,30.6671,-87.9365,4.912,4.54,1111122 
DISL,ioos:station:DISL:MHPA:1,2013-07-05T13:30:00Z,30.6671,-87.9365,5.028,5.18,1111122 
DISL,ioos:station:DISL:MHPA:1,2013-07-05T14:00:00Z,30.6671,-87.9365,4.957,5.0,1111122 
DISL,ioos:station:DISL:MHPA:1,2013-07-05T14:30:00Z,30.6671,-87.9365,5.111,4.76,1111122 
DISL,ioos:station:DISL:MHPA:1,2013-07-05T15:00:00Z,30.6671,-87.9365,5.233,4.93,1111122 
DISL,ioos:station:DISL:MHPA:1,2013-07-05T15:30:00Z,30.6671,-87.9365,5.212,5.01,1111122 
DISL,ioos:station:DISL:MHPA:1,2013-07-05T16:00:00Z,30.6671,-87.9365,5.19,5.0,1111122 
DISL,ioos:station:DISL:MHPA:1,2013-07-05T16:30:00Z,30.6671,-87.9365,5.175,5.12,1111122 
DISL,ioos:station:DISL:MHPA:1,2013-07-05T17:00:00Z,30.6671,-87.9365,5.211,5.05,1111122 
DISL,ioos:station:DISL:MHPA:1,2013-07-05T17:30:00Z,30.6671,-87.9365,5.196,5.11,1111122 
DISL,ioos:station:DISL:MHPA:1,2013-07-05T18:00:00Z,30.6671,-87.9365,5.132,5.21,1111122 
DISL,ioos:station:DISL:MHPA:1,2013-07-05T18:30:00Z,30.6671,-87.9365,5.2,4.91,1111122 
DISL,ioos:station:DISL:MHPA:1,2013-07-05T19:00:00Z,30.6671,-87.9365,5.201,5.45,1111122 
DISL,ioos:station:DISL:MHPA:1,2013-07-05T19:30:00Z,30.6671,-87.9365,4.986,5.54,1111122 
DISL,ioos:station:DISL:MHPA:1,2013-07-05T20:00:00Z,30.6671,-87.9365,4.85,5.55,1111122 
DISL,ioos:station:DISL:MHPA:1,2013-07-05T20:30:00Z,30.6671,-87.9365,4.729,5.46,1111122 
DISL,ioos:station:DISL:MHPA:1,2013-07-05T21:00:00Z,30.6671,-87.9365,4.519,5.44,1111122 
DISL,ioos:station:DISL:MHPA:1,2013-07-05T21:30:00Z,30.6671,-87.9365,4.254,5.59,1111122 
DISL,ioos:station:DISL:MHPA:1,2013-07-05T22:00:00Z,30.6671,-87.9365,4.045,5.64,1111122 
DISL,ioos:station:DISL:MHPA:1,2013-07-05T22:30:00Z,30.6671,-87.9365,3.931,5.79,1111122 
DISL,ioos:station:DISL:MHPA:1,2013-07-05T23:00:00Z,30.6671,-87.9365,3.845,5.82,1111122 
DISL,ioos:station:DISL:MHPA:1,2013-07-05T23:30:00Z,30.6671,-87.9365,3.752,5.74,1111122 
DISL,ioos:station:DISL:MHPA:1,2013-07-06T00:00:00Z,30.6671,-87.9365,3.706,5.75,1111122 
DISL,ioos:station:DISL:MHPA:1,2013-07-06T00:30:00Z,30.6671,-87.9365,3.664,5.95,1111122 
DISL,ioos:station:DISL:MHPA:1,2013-07-06T01:00:00Z,30.6671,-87.9365,3.621,5.88,1111122 
DISL,ioos:station:DISL:MHPA:1,2013-07-06T01:30:00Z,30.6671,-87.9365,3.598,5.79,1111122 
DISL,ioos:station:DISL:MHPA:1,2013-07-06T02:00:00Z,30.6671,-87.9365,3.521,5.72,1111122 
DISL,ioos:station:DISL:MHPA:1,2013-07-06T02:30:00Z,30.6671,-87.9365,3.462,5.69,1111122 
DISL,ioos:station:DISL:MHPA:1,2013-07-06T03:00:00Z,30.6671,-87.9365,3.433,5.18,1111122 
DISL,ioos:station:DISL:MHPA:1,2013-07-06T03:30:00Z,30.6671,-87.9365,3.413,5.47,1111122 
DISL,ioos:station:DISL:MHPA:1,2013-07-06T04:00:00Z,30.6671,-87.9365,3.441,5.37,1111122 
DISL,ioos:station:DISL:MHPA:1,2013-07-06T04:30:00Z,30.6671,-87.9365,3.614,5.25,1111122 
DISL,ioos:station:DISL:MHPA:1,2013-07-06T05:00:00Z,30.6671,-87.9365,3.734,5.3,1111122 
DISL,ioos:station:DISL:MHPA:1,2013-07-06T05:30:00Z,30.6671,-87.9365,3.762,5.35,1111122 
DISL,ioos:station:DISL:MHPA:1,2013-07-06T06:00:00Z,30.6671,-87.9365,3.816,5.24,1111122 
DISL,ioos:station:DISL:MHPA:1,2013-07-06T06:30:00Z,30.6671,-87.9365,3.927,5.18,1111122 
DISL,ioos:station:DISL:MHPA:1,2013-07-06T07:00:00Z,30.6671,-87.9365,3.997,5.16,1111122 
DISL,ioos:station:DISL:MHPA:1,2013-07-06T07:30:00Z,30.6671,-87.9365,4.091,5.34,1111122 
DISL,ioos:station:DISL:MHPA:1,2013-07-06T08:00:00Z,30.6671,-87.9365,4.148,5.2,1111122 
DISL,ioos:station:DISL:MHPA:1,2013-07-06T08:30:00Z,30.6671,-87.9365,4.264,5.21,1111122 
DISL,ioos:station:DISL:MHPA:1,2013-07-06T09:00:00Z,30.6671,-87.9365,4.328,5.17,1111122 
DISL,ioos:station:DISL:MHPA:1,2013-07-06T09:30:00Z,30.6671,-87.9365,4.398,5.09,1111122 
DISL,ioos:station:DISL:MHPA:1,2013-07-06T10:00:00Z,30.6671,-87.9365,4.387,5.05,1111122 
DISL,ioos:station:DISL:MHPA:1,2013-07-06T10:30:00Z,30.6671,-87.9365,4.403,5.09,1111122 
DISL,ioos:station:DISL:MHPA:1,2013-07-06T11:00:00Z,30.6671,-87.9365,4.451,4.92,1111122 
DISL,ioos:station:DISL:MHPA:1,2013-07-06T11:30:00Z,30.6671,-87.9365,4.539,4.64,1111122 
DISL,ioos:station:DISL:MHPA:1,2013-07-06T12:00:00Z,30.6671,-87.9365,4.527,4.62,1111122 
DISL,ioos:station:DISL:MHPA:1,2013-07-06T12:30:00Z,30.6671,-87.9365,4.632,4.58,1111122 
DISL,ioos:station:DISL:MHPA:1,2013-07-06T13:00:00Z,30.6671,-87.9365,4.718,4.58,1111122 
DISL,ioos:station:DISL:MHPA:1,2013-07-06T13:30:00Z,30.6671,-87.9365,4.802,4.72,1111122 
DISL,ioos:station:DISL:MHPA:1,2013-07-06T14:00:00Z,30.6671,-87.9365,5.096,5.27,1111122 
DISL,ioos:station:DISL:MHPA:1,2013-07-06T14:30:00Z,30.6671,-87.9365,5.709,5.26,1111122 
DISL,ioos:station:DISL:MHPA:1,2013-07-06T15:00:00Z,30.6671,-87.9365,5.229,4.66,1111122 
DISL,ioos:station:DISL:MHPA:1,2013-07-06T15:30:00Z,30.6671,-87.9365,4.976,4.09,1111122 